This demonstration page uses our WeatherBlox Daily Observations layout. Learn more.

Left ArrowRight Arrow

44.89941, -97.11507

Hourly Observations for November 13, 2019

Temp ( °F °C ) Dew Point ( °F °C ) Humidity (%) Winds ( mph kmh ) Pressure ( in mb ) Visibility ( mi km ) Precip ( " mm )
12:53 am 00:53 Cloudy 27 -2.8 23 -5 85 85 S 5 7 29.83 1010 10 16 0.00 0.00
1:53 am 01:53 Mostly Cloudy 26 -3.3 22 -5.6 84 84 S 6 9 29.81 1010 10 16 0.00 0.00
2:53 am 02:53 Mostly Cloudy 23 -5 21 -6.1 92 92 SW 3 6 29.83 1010 10 16 0.00 0.00
3:53 am 03:53 Cloudy 23 -5 21 -6.1 92 92 SSW 5 7 29.83 1010 10 16 0.00 0.00
4:53 am 04:53 Cloudy 25 -3.9 23 -5 92 92 Calm 29.82 1010 10 16 0.00 0.00
5:53 am 05:53 Cloudy 25 -3.9 22 -5.6 88 88 NW 6 9 29.85 1011 10 16 0.00 0.00
6:16 am 06:16 Cloudy 26 -3.3 24 -4.4 92 92 NNW 5 7 29.89 1012 10 16 0.00 0.00
6:25 am 06:25 Cloudy 26 -3.3 24 -4.4 92 92 NNW 3 6 29.89 1012 10 16 0.00 0.00
6:53 am 06:53 Cloudy 27 -2.8 24 -4.4 89 89 NW 5 7 29.87 1011 10 16 0.00 0.00
7:53 am 07:53 Cloudy 28 -2.2 24 -4.4 85 85 NW 7 11 29.90 1013 10 16 0.00 0.00
8:53 am 08:53 Cloudy with Light Snow 29 -1.7 24 -4.4 82 82 NNW 8 13 29.92 1013 3 5 0.00 0.00
8:57 am 08:57 Cloudy with Light Snow 29 -1.7 25 -3.9 85 85 NW 8 13 29.95 1014 2 3 0.00 0.00
9:04 am 09:04 Cloudy with Light Snow 29 -1.7 26 -3.3 89 89 NW 7 11 29.95 1014 1 2 0.00 0.00
9:12 am 09:12 Cloudy with Light Snow 29 -1.7 26 -3.3 89 89 NW 7 11 29.95 1014 2 3 0.00 0.00
9:20 am 09:20 Cloudy with Light Snow 29 -1.7 26 -3.3 89 89 NW 8 13 29.95 1014 3 4 0.00 0.00
9:45 am 09:45 Cloudy with Light Snow 30 -1.1 26 -3.3 85 85 NNW 15 24 29.97 1015 3 5 0.00 0.00
9:53 am 09:53 Cloudy with Light Snow 29 -1.7 26 -3.3 89 89 NW 15 24 29.95 1014 3 5 0.00 0.00
10:53 am 10:53 Cloudy 30 -1.1 25 -3.9 82 82 NW 14 22 29.96 1015 10 16 0.00 0.00
11:33 am 11:33 Cloudy 31 -0.6 26 -3.3 82 82 NW 14 22 29.99 1016 10 16 0.00 0.00
11:53 am 11:53 Cloudy 31 -0.6 26 -3.3 82 82 NNW 14 22 29.98 1015 10 16 0.00 0.00
12:31 pm 12:31 Mostly Cloudy 32 0 25 -3.9 75 75 NW 16 26 29.99 1016 10 16 0.00 0.00
12:53 pm 12:53 Mostly Cloudy 32 0 25 -3.9 75 75 NNW 16 26 29.97 1015 10 16 0.00 0.00
1:53 pm 13:53 Partly Cloudy 33 0.6 24 -4.4 70 70 NW 16 26 29.99 1016 10 16 0.00 0.00
2:53 pm 14:53 Mostly Sunny 34 1.1 23 -5 64 64 NNW 14 22 30.01 1016 10 16 0.00 0.00
3:53 pm 15:53 Sunny 32 0 20 -6.7 61 61 NW 13 20 30.03 1017 10 16 0.00 0.00
4:53 pm 16:53 Sunny 28 -2.2 18 -7.8 66 66 NW 10 17 30.05 1018 10 16 0.00 0.00
5:53 pm 17:53 Clear 25 -3.9 17 -8.3 72 72 NW 8 13 30.08 1019 10 16 0.00 0.00
6:53 pm 18:53 Clear 23 -5 16 -8.9 74 74 NNW 9 15 30.10 1019 10 16 0.00 0.00
7:12 pm 19:12 Mostly Cloudy 24 -4.4 17 -8.3 75 75 NNW 7 11 30.15 1021 10 16 0.00 0.00
7:53 pm 19:53 Mostly Cloudy 22 -5.6 16 -8.9 78 78 N 9 15 30.12 1020 10 16 0.00 0.00
8:53 pm 20:53 Cloudy 21 -6.1 16 -8.9 81 81 N 6 9 30.14 1021 10 16 0.00 0.00
9:53 pm 21:53 Cloudy 21 -6.1 16 -8.9 81 81 N 9 15 30.17 1022 10 16 0.00 0.00
10:53 pm 22:53 Cloudy 20 -6.7 15 -9.4 81 81 N 8 13 30.19 1022 10 16 0.00 0.00
11:38 pm 23:38 Partly Cloudy 17 -8.3 13 -10.6 84 84 NNW 7 11 30.26 1025 10 16 0.00 0.00
11:53 pm 23:53 Mostly Clear 15 -9.4 11 -11.7 84 84 N 7 11 30.20 1023 10 16 0.00 0.00

Powered by AerisWeather